Weather History for Baltimore, MD

Change the Weather History Date:

Tuesday, November 5, 2013

  Actual Average Record
Temperature  
Mean Temperature 46 °F 50 °F  
Max Temperature 57 °F 61 °F 83 °F (1961)
Min Temperature 35 °F 39 °F 24 °F (1998)
Degree Days  
Heating Degree Days 19 15  
Month to date heating degree days 71 73  
Since 1 July heating degree days 360 420  
Cooling Degree Days 0 0  
Month to date cooling degree days 0 0  
Year to date cooling degree days 1339 1163  
Moisture  
Dew Point 38 °F    
Average Humidity 67    
Maximum Humidity 77    
Minimum Humidity 57    
Precipitation  
Precipitation 0.00 in 0.11 in 1.41 in (1986)
Month to date precipitation 0.17 0.57  
Year to date precipitation 35.01 35.78  
Snow  
Snow 0.00 in 0.00 in 0.30 in (1962)
Month to date snowfall 0.0 0.0  
Since 1 July snowfall 0.0 0.0  
Snow Depth 0.00 in    
Sea Level Pressure  
Sea Level Pressure 30.56 in    
Wind  
Wind Speed 3 mph (ENE)    
Max Wind Speed 9 mph    
Max Gust Speed 13 mph    
Visibility 10 miles    
Events      
T = Trace of Precipitation, MM = Missing Value Source: NWS Daily Summary

Daily Weather History Graph

Daily Weather History Graph

Search for Another Location

Airport:

Trip Planner

Search our weather history database for the weather conditions in past years. The results will help you decide how hot, cold, wet, or windy it might be!

Date:

Astronomy

Nov. 05, 2013 Rise Set
Actual Time 6:39 AM EST 5:01 PM EST
Civil Twilight 6:11 AM EST 5:29 PM EST
Nautical Twilight 5:39 AM EST 6:00 PM EST
Astronomical Twilight 5:07 AM EST 6:32 PM EST
Moon 8:51 AM EST (11/5) 7:01 PM EST (11/5)
Length of Visible Light 11h 18m
Length of Day
10h 22m
Waxing Crescent, 6% of the Moon is Illuminated
Nov 5
Waxing Crescent
Nov 10
First Quarter
Nov 17
Full
Nov 25
Last Quarter
Dec 2
New

Hourly Weather History & Observations

Time (EST) Temp. Windchill Dew Point Humidity Pressure Visibility Wind Dir Wind Speed Gust Speed Precip Events Conditions
12:54 AM 37.0 °F - 30.0 °F 76% 30.59 in 10.0 mi Calm Calm - N/A   Mostly Cloudy
1:54 AM 37.0 °F - 28.9 °F 73% 30.60 in 10.0 mi Calm Calm - N/A   Mostly Cloudy
2:54 AM 39.0 °F - 30.9 °F 73% 30.58 in 10.0 mi Calm Calm - N/A   Overcast
3:54 AM 39.0 °F 35.7 °F 30.0 °F 70% 30.58 in 10.0 mi NNE 4.6 mph - N/A   Mostly Cloudy
4:54 AM 39.9 °F - 30.9 °F 70% 30.59 in 10.0 mi Calm Calm - N/A   Overcast
5:54 AM 41.0 °F 39.0 °F 30.9 °F 67% 30.59 in 10.0 mi NNE 3.5 mph - N/A   Mostly Cloudy
6:54 AM 41.0 °F 39.0 °F 30.9 °F 67% 30.60 in 10.0 mi North 3.5 mph - N/A   Mostly Cloudy
7:54 AM 43.0 °F 41.3 °F 33.1 °F 68% 30.62 in 10.0 mi NNE 3.5 mph - N/A   Mostly Cloudy
8:54 AM 46.9 °F - 35.1 °F 63% 30.61 in 10.0 mi NE 5.8 mph - N/A   Mostly Cloudy
9:54 AM 50.0 °F - 37.9 °F 63% 30.61 in 10.0 mi East 5.8 mph - N/A   Mostly Cloudy
10:54 AM 52.0 °F - 39.0 °F 61% 30.61 in 10.0 mi Calm Calm - N/A   Mostly Cloudy
11:54 AM 55.0 °F - 41.0 °F 59% 30.57 in 10.0 mi SSE 4.6 mph - N/A   Mostly Cloudy
12:54 PM 55.9 °F - 42.1 °F 60% 30.56 in 10.0 mi East 4.6 mph - N/A   Overcast
1:54 PM 55.9 °F - 43.0 °F 62% 30.54 in 10.0 mi ENE 8.1 mph - N/A   Overcast
2:54 PM 57.0 °F - 42.1 °F 57% 30.53 in 10.0 mi ESE 5.8 mph - N/A   Mostly Cloudy
3:54 PM 57.0 °F - 42.1 °F 57% 30.53 in 10.0 mi Calm Calm - N/A   Mostly Cloudy
4:54 PM 55.9 °F - 42.1 °F 60% 30.51 in 10.0 mi Calm Calm - N/A   Mostly Cloudy
5:54 PM 53.1 °F - 44.1 °F 71% 30.51 in 10.0 mi East 3.5 mph - N/A   Overcast
6:54 PM 54.0 °F - 44.1 °F 69% 30.51 in 10.0 mi East 4.6 mph - N/A   Overcast
7:54 PM 55.0 °F - 44.1 °F 67% 30.52 in 10.0 mi Variable 5.8 mph - N/A   Overcast
8:54 PM 53.1 °F - 46.0 °F 77% 30.50 in 10.0 mi ESE 5.8 mph - N/A   Overcast
9:54 PM 53.1 °F - 46.0 °F 77% 30.50 in 10.0 mi East 3.5 mph - N/A   Overcast
10:54 PM 53.1 °F - 46.0 °F 77% 30.49 in 10.0 mi Calm Calm - N/A   Overcast
11:54 PM 53.1 °F - 46.0 °F 77% 30.48 in 10.0 mi Calm Calm - N/A   Overcast